{"data":{"norad_id":58957,"intl_designator":"2024-028C","name":"RAPTOR1","alt_names":[],"object_type":"PAYLOAD","status":"ACTIVE","operator":null,"country":"US","launch_date":"2024-02-14","launch_site_code":"AFETR","launch_vehicle":null,"mission":null,"orbit_class":"UNKNOWN","rcs_meters":null,"size_class":null,"mass_kg":null,"dimensions":null,"purposes":[],"wikipedia_slug":null,"has_3d_model":false,"image_url":null,"decayed_at":null,"tle_current":{"epoch":"2026-09-22T04:11:22.614720Z","epoch_age_seconds":107731,"freshness":"FRESH","line1":"1 58957U 24028C   26265.17456730 -.00000033  00000+0  48125-4 0  9994","line2":"2 58957  39.9914 316.0866 0010713  95.1521 265.0450 13.74248286130399","mean_motion":13.74248286,"eccentricity":0.0010713,"inclination_deg":39.9914,"raan_deg":316.0866,"arg_perigee_deg":95.1521,"mean_anomaly_deg":265.045,"bstar":4.8125e-5,"rev_number":13039,"period_min":104.78455855975,"perigee_km":976.4709962778,"apogee_km":992.24587900249,"semimajor_km":7362.4954376401,"source":"CELESTRAK","updated_at":"2026-09-23T09:00:19.082283Z"}}}